This is the latest recevied weather packets stored in our database for station/object KC8YYF. If no packets are shown the sender has not sent any weather packets the latest 10 day(s).
| Time | Temp. | Humidity | Pressure | Rain* | Wind** | Luminosity | Snow |
|---|---|---|---|---|---|---|---|
| 1777640113 | 6.11° C | 82% | 1013.9 hPa | 0 mm | - | 31 W/m² | - |
| 1777639809 | 6.11° C | 83% | 1013.8 hPa | 0 mm | - | 29 W/m² | - |
| 1777639506 | 6.11° C | 83% | 1013.9 hPa | 0 mm | - | 20 W/m² | - |
| 1777639203 | 6.11° C | 82% | 1013.6 hPa | 0 mm | - | 15 W/m² | - |
| 1777638899 | 6.11° C | 83% | 1013.7 hPa | 0 mm | - | 22 W/m² | - |
| 1777638594 | 6.11° C | 83% | 1013.6 hPa | 0 mm | - | 32 W/m² | - |
| 1777638286 | 6.11° C | 83% | 1013.7 hPa | 0 mm | - | 22 W/m² | - |
| 1777637982 | 6.11° C | 84% | 1013.7 hPa | 0 mm | - | 29 W/m² | - |
| 1777637678 | 5.56° C | 84% | 1013.8 hPa | 0 mm | - | 34 W/m² | - |
| 1777637376 | 5.56° C | 85% | 1014 hPa | 0 mm | - | 22 W/m² | - |
| 1777637072 | 5.56° C | 86% | 1013.8 hPa | 0 mm | - | 43 W/m² | - |
| 1777636768 | 5.56° C | 85% | 1013.6 hPa | 0 mm | - | 15 W/m² | - |
| 1777636465 | 5° C | 87% | 1013.8 hPa | 0 mm | - | 11 W/m² | - |
| 1777636160 | 5° C | 90% | 1013.9 hPa | 0 mm | - | 29 W/m² | - |
| 1777635855 | 5.56° C | 90% | 1014 hPa | 0 mm | - | 11 W/m² | - |
| 1777635552 | 5.56° C | 88% | 1013.8 hPa | 0 mm | - | 7 W/m² | - |
| 1777635249 | 5.56° C | 84% | 1013.6 hPa | 0 mm | - | 10 W/m² | - |
| 1777634945 | 5.56° C | 83% | 1013.5 hPa | 0 mm | - | 7 W/m² | - |
| 1777634642 | 5.56° C | 83% | 1013.6 hPa | 0 mm | - | 6 W/m² | - |
| 1777634340 | 5° C | 84% | 1013.4 hPa | 0 mm | - | 1 W/m² | - |
| 1777634036 | 5.56° C | 86% | 1013.6 hPa | 0 mm | - | 4 W/m² | - |
| 1777633732 | 5° C | 86% | 1013.7 hPa | 0 mm | - | 4 W/m² | - |
| 1777633431 | 5° C | 88% | 1013.6 hPa | 0 mm | - | 4 W/m² | - |
| 1777633128 | 5° C | 88% | 1013.7 hPa | 0 mm | - | 4 W/m² | - |
| 1777632824 | 5° C | 90% | 1013.6 hPa | 0 mm | - | 1 W/m² | - |
* Rain latest hour (hover to see other rain measurements)
** Current wind speed in m/s (hover to see current wind gust speed)